Weather in Florianopolis

Brazil     27°34′52″S   48°37′05″W
temp.,
°C
wind,
m/s
gust,
m/s
humid.,
%
clouds,
%
prec.,
mm/h
press.,
hPa
HPBL,
m
14 august, sun
sun1400:00+16nw1297100 0.1 102349
03:00+16nw1296100 0.1 102268
06:00+16nw1295100 0.0 102062
09:00+18nnw2686100 0.0 1022253
12:00+20n3677100 0.0 1021649
15:00+19nne478031 0.0 1018559
18:00+17nne389564 0.0 1018266
21:00+17n2696100 0.0 1018218
15 august, mon
mon1500:00+17nnw2595100 0.0 1017208
03:00+17n259277 0.0 1015216
06:00+18n378697 0.0 1014371
09:00+18n368559 0.1 1015415
12:00+20nne477615 0.0 1013469
15:00+20nne578233 0.0 1009292
18:00+18nne379491 0.0 1009241
21:00+17n36943 0.0 1010156
16 august, tue
tue1600:00+17n2492100 0.0 100991
03:00+17n1294100 0.0 100753
06:00+18s41289100 0.0 1009408
09:00+19s2590100 0.0 1012165
12:00+19ese1293100 0.3 1012113
15:00+19nnw2497100 2.6 1011188
18:00+18nne2498100 2.8 1012146
21:00+17se2398100 4.4 1013122
17 august, wed
wed1700:00+16e2297100 0.9 1015155
03:00+16nne1197100 2.1 101392
06:00+16nne0198100 1.2 101389
09:00+17nne1398100 4.8 1014177
12:00+17n1297100 1.0 1013190
15:00+18nnw1397100 1.3 1010234
18:00+18nnw2397100 0.0 101096
21:00+18nnw1297100 0.0 101054
18 august, thu
thu1800:00+18n2597100 0.0 1010135
03:00+18n2496100 0.1 1009107
06:00+18n3699100 2.0 1008204
09:00+18nne2899100 12.7 1009420
12:00+18wnw1298100 2.6 1009106
15:00+17sse4995100 5.5 1010496
18:00+15s61291100 4.7 1012805
21:00+13s61187100 7.3 1018663